Погода в Маскате

Оман     23°36′54″N   58°35′40″E
темп.,
°C
ветер,
м/с
пор.,
м/с
влажн.,
%
обл.,
%
осадки,
мм/ч
давл.,
гПа
погр.,
м
18 апреля, вс
вс1801:00+28ю223059 0.0 101111
04:00+26ссз1134100 0.0 101111
07:00+28всв113297 0.0 101474
10:00+32ссв222622 0.0 1014953
13:00+34ссв642937 0.0 1012945
16:00+32св3330100 0.0 1011752
19:00+29св2235100 0.0 101269
22:00+28юз1139100 0.0 101212
19 апреля, пн
пн1901:00+26зсз114248 0.0 101111
04:00+25з114071 0.0 101011
07:00+28ю222781 0.0 101180
10:00+34с221889 0.0 10111709
13:00+32ссв4421100 0.0 1009821
16:00+32ссв64245 0.0 1008924
19:00+28всв12310 0.0 100912
22:00+26ююз22340 0.0 101011
20 апреля, вт
вт2001:00+25з11320 0.0 100911
04:00+24зюз11320 0.0 100811
07:00+27зсз112912 0.0 101053
10:00+33сз34150 0.0 1011890
13:00+34с54170 0.0 10091073
16:00+33ссз33180 0.0 1008636
19:00+29сз01230 0.0 100812
22:00+30ююз44180 0.0 100923
21 апреля, ср
ср2101:00+28ююз44260 0.0 100829
04:00+26ююв22370 0.0 100817
07:00+28ююз22310 0.0 101175
10:00+36с11160 0.0 10111126
13:00+37ссв75150 0.0 10091874
16:00+36св44150 0.0 10081051
19:00+32вюв32200 0.0 100915
22:00+31ю33190 0.0 101014
22 апреля, чт
чт2201:00+29ююз55360 0.0 100954
04:00+28ююз55400 0.0 100950
07:00+30юз23260 0.0 101194
10:00+36ссз44170 0.0 10111091
13:00+37с43160 0.0 10101251
16:00+36ссв34150 0.0 1009884
19:00+32св112168 0.0 100911
22:00+32ю331829 0.0 101015